Carlsbad, NM

1:03 AM MDT on October 17, 2017 (GMT -0600)
Cavern City

Weather History for KCNM - September, 2014

Change the Weather History Date:

Wednesday, September 10, 2014

  Actual Average Record
Temperature  
Mean Temperature 83 °F -  
Max Temperature 93 °F 87 °F 102 °F (2000)
Min Temperature 73 °F 62 °F 50 °F (2004)
Cooling Degree Days 18    
Growing Degree Days 33 (Base 50)    
Moisture  
Dew Point 57 °F    
Average Humidity 43    
Maximum Humidity 61    
Minimum Humidity 25    
Precipitation  
Precipitation 0.00 in - - ()
Sea Level Pressure  
Sea Level Pressure 29.74 in    
Wind  
Wind Speed 8 mph (WNW)    
Max Wind Speed 20 mph    
Max Gust Speed 25 mph    
Visibility 10 miles    
Events      
Averages and records for this station are not official NWS values.
T = Trace of Precipitation, MM = Missing Value Source: NWS Daily Summary

Daily Weather History Graph

Daily Weather History Graph

Search for Another Location

Airport or City:

Trip Planner

Search our weather history database for the weather conditions in past years. The results will help you decide how hot, cold, wet, or windy it might be!

Date:

Astronomy

Sep. 10, 2014 Rise Set
Actual Time 6:37 AM MDT 7:09 PM MDT
Civil Twilight 6:13 AM MDT 7:34 PM MDT
Nautical Twilight 5:44 AM MDT 8:03 PM MDT
Astronomical Twilight 5:14 AM MDT 8:32 PM MDT
Moon 8:19 PM MDT (9/10) 8:19 AM MDT (9/10)
Length of Visible Light 13h 21m
Length of Day
12h 31m
Waning Gibbous, 96% of the Moon is Illuminated
Sep 10
Waning Gibbous
Sep 15
Last Quarter
Sep 24
New
Oct 1
First Quarter
Oct 8
Full

Hourly Weather History & Observations

Time (MDT) Temp. Heat Index Dew Point Humidity Pressure Visibility Wind Dir Wind Speed Gust Speed Precip Events Conditions
12:53 AM 75.0 °F - 59.0 °F 57% 29.69 in 10.0 mi WNW 5.8 mph - N/A   Clear
1:53 AM 73.0 °F - 59.0 °F 61% 29.70 in 10.0 mi Calm Calm - N/A   Clear
2:53 AM 75.9 °F - 55.9 °F 50% 29.68 in 10.0 mi WSW 6.9 mph - N/A   Clear
3:53 AM 78.8 °F - 55.4 °F 44% 29.88 in 10.0 mi West 11.5 mph - N/A   Clear
4:53 AM 73.9 °F - 57.0 °F 55% 29.68 in 10.0 mi WSW 13.8 mph - N/A   Clear
5:53 AM 73.9 °F - 55.9 °F 53% 29.70 in 10.0 mi West 15.0 mph - N/A   Clear
6:53 AM 73.0 °F - 57.0 °F 57% 29.73 in 10.0 mi WSW 13.8 mph - N/A   Clear
7:53 AM 77.0 °F - 55.9 °F 48% 29.76 in 10.0 mi West 19.6 mph 25.3 mph N/A   Clear
8:53 AM 82.0 °F 82.0 °F 57.9 °F 44% 29.77 in 10.0 mi West 10.4 mph - N/A   Clear
9:53 AM 86.0 °F 84.5 °F 55.0 °F 35% 29.78 in 10.0 mi WNW 13.8 mph - N/A   Clear
10:53 AM 87.1 °F 85.3 °F 55.0 °F 33% 29.79 in 10.0 mi North 13.8 mph - N/A   Clear
11:53 AM 89.1 °F 86.9 °F 54.0 °F 30% 29.78 in 10.0 mi North 8.1 mph - N/A   Clear
12:53 PM 91.0 °F 88.7 °F 54.0 °F 28% 29.77 in 10.0 mi NNE 4.6 mph - N/A   Clear
1:53 PM 91.9 °F - 51.1 °F 25% 29.75 in 10.0 mi NE 5.8 mph - N/A   Clear
2:53 PM 93.0 °F 90.6 °F 53.1 °F 26% 29.72 in 10.0 mi NNE 5.8 mph - N/A   Clear
3:53 PM 91.9 °F - 52.0 °F 26% 29.71 in 10.0 mi ESE 8.1 mph - N/A   Clear
4:53 PM 91.9 °F - 52.0 °F 26% 29.70 in 10.0 mi South 4.6 mph - N/A   Clear
5:53 PM 91.9 °F 89.5 °F 53.1 °F 27% 29.71 in 10.0 mi East 8.1 mph - N/A   Clear
6:53 PM 87.1 °F 86.1 °F 57.9 °F 37% 29.72 in 10.0 mi ESE 4.6 mph - N/A   Clear
7:53 PM 84.0 °F 83.8 °F 59.0 °F 43% 29.73 in 10.0 mi SE 4.6 mph - N/A   Clear
8:53 PM 79.0 °F - 64.0 °F 60% 29.75 in 10.0 mi WNW 4.6 mph - N/A   Clear
9:53 PM 78.1 °F - 63.0 °F 60% 29.75 in 10.0 mi WSW 5.8 mph - N/A   Mostly Cloudy
10:53 PM 79.0 °F - 60.1 °F 52% 29.79 in 10.0 mi NNW 8.1 mph - N/A   Mostly Cloudy
11:53 PM 78.1 °F - 63.0 °F 60% 29.81 in 10.0 mi ENE 9.2 mph - N/A   Clear